This demonstration page uses our WeatherBlox Daily Observations layout. Learn more.

41.55636, -103.73856

Hourly Observations for August 17, 2015

Temp ( °F °C ) Dew Point ( °F °C ) Humidity (%) Winds ( mph kmh ) Pressure ( in mb ) Visibility ( mi km ) Precip ( " mm )
12:53 am 00:53 Mostly Clear 63 17.2 58 14.4 84 84 SE 5 7 30 1016 9 14.48406 0 0
1:11 am 01:11 Mostly Cloudy 62 16.7 58 14.4 86 86 SE 3 6 29.97 1015 9 14.48406 0 0
1:53 am 01:53 Cloudy 63 17.2 59 15 87 87 ENE 5 7 30.01 1016 8 12.87472 0 0
2:41 am 02:41 Partly Cloudy 62 16.7 58 14.4 86 86 E 5 7 29.97 1015 9 14.48406 0 0
2:51 am 02:51 Mostly Cloudy 63 17 57 14 83 83 E 5 7 29.97 1015 9 14.48406 0 0
2:53 am 02:53 Mostly Cloudy 62 16.7 58 14.4 86 86 E 5 7 29.98 1015 9 14.48406 0 0
3:53 am 03:53 Cloudy 63 17.2 56 13.3 78 78 ENE 7 11 29.99 1016 10 16.0934 0 0
4:53 am 04:53 Cloudy 62 16.7 52 11.1 70 70 ENE 9 15 29.98 1015 10 16.0934 0 0
5:53 am 05:53 Cloudy 59 15 52 11.1 78 78 ENE 14 22 30.02 1017 10 16.0934 0 0
6:53 am 06:53 Cloudy with Mist and Fog 57 13.9 53 11.7 87 87 E 7 11 30.04 1017 6 9.65604 0 0
7:53 am 07:53 Cloudy with Light Rain 57 13.9 54 12.2 90 90 ENE 10 17 30.04 1017 4 6.43736 0 0.0254
8:53 am 08:53 Cloudy 58 14.4 54 12.2 87 87 ENE 10 17 30.04 1017 10 16.0934 0.01 0.254
9:53 am 09:53 Cloudy 59 15 53 11.7 81 81 NE 9 15 30.04 1017 10 16.0934 0 0
10:53 am 10:53 Cloudy 61 16.1 51 10.6 70 70 E 8 13 30.03 1017 10 16.0934 0 0
11:53 am 11:53 Cloudy 62 16.7 51 10.6 67 67 E 5 7 30.03 1017 10 16.0934 0 0
12:53 pm 12:53 Cloudy 64 17.8 50 10 60 60 VRB 6 9 30.01 1016 10 16.0934 0 0
1:53 pm 13:53 Cloudy 66 18.9 51 10.6 59 59 SE 10 17 29.98 1015 10 16.0934 0 0
2:19 pm 14:19 Mostly Cloudy 69 20.6 52 11.1 55 55 SE 12 19 29.85 1011 10 16.0934 0 0
2:46 pm 14:46 Cloudy 68 20 54 12 60 60 ESE 10 17 29.88 1012 10 16.0934 0 0
2:53 pm 14:53 Cloudy 69 20.6 54 12.2 59 59 E 13 20 29.94 1014 10 16.0934 0 0
3:53 pm 15:53 Cloudy 70 21.1 55 12.8 59 59 ESE 16 26 29.89 1012 10 16.0934 0 0
4:10 pm 16:10 Mostly Cloudy 70 21 55 13 60 60 ESE 15 24 29.8 1009 10 16.0934 0 0
4:25 pm 16:25 Cloudy 69 20.6 56 13.3 63 63 ESE 15 24 29.8 1009 10 16.0934 0 0
4:49 pm 16:49 Cloudy 70 21 55 13 60 60 ESE 14 22 29.77 1008 10 16.0934 0 0
4:53 pm 16:53 Cloudy 69 20.6 56 13.3 63 63 ESE 15 24 29.87 1011 10 16.0934 0 0
5:53 pm 17:53 Cloudy 67 19.4 57 13.9 71 71 SE 16 26 29.85 1011 10 16.0934 0 0
6:53 pm 18:53 Cloudy 66 18.9 56 13.3 70 70 ESE 17 28 29.86 1011 10 16.0934 0 0
7:53 pm 19:53 Cloudy 64 17.8 57 13.9 78 78 SE 17 28 29.86 1011 10 16.0934 0 0
8:03 pm 20:03 Cloudy 63 17 57 14 83 83 SE 15 24 29.8 1009 10 16.0934 0 0
8:53 pm 20:53 Cloudy 62 16.7 58 14.4 86 86 ESE 17 28 29.85 1011 7 11.26538 0 0
9:53 pm 21:53 Cloudy with Mist and Fog 61 16.1 58 14.4 90 90 ESE 17 28 29.81 1010 6 9.65604 0 0
10:19 pm 22:19 Cloudy with Mist and Fog 61 16.1 58 14.4 90 90 SE 16 26 29.8 1009 4 6.43736 0 0
10:53 pm 22:53 Cloudy with Mist and Fog 60 15.6 58 14.4 93 93 SSE 13 20 29.81 1009 5 8.0467 0 0
11:19 pm 23:19 Cloudy with Mist and Fog 60 15.6 59 15 96 96 ESE 12 19 29.8 1009 2 3.21868 0 0
11:39 pm 23:39 Cloudy with Nearby Thunderstorms 60 15.6 59 15 96 96 ESE 10 17 29.8 1009 3 4.82802 0 0
11:51 pm 23:51 Cloudy with Thunderstorms 61 16 59 15 94 94 N 10 17 29.8 1009 4 6.43736 0 0
11:53 pm 23:53 Cloudy with Thunderstorms 60 15.6 59 15 96 96 NNW 13 20 29.86 1011 4 6.43736 0 0

Powered by AerisWeather